MDT,Max TemperatureF,Mean TemperatureF,Min TemperatureF,Max Dew PointF,MeanDew PointF,Min DewpointF,Max Humidity, Mean Humidity, Min Humidity, Max Sea Level PressureIn, Mean Sea Level PressureIn, Min Sea Level PressureIn, Max VisibilityMiles, Mean VisibilityMiles, Min VisibilityMiles, Max Wind SpeedMPH, Mean Wind SpeedMPH, Max Gust SpeedMPH,PrecipitationIn, CloudCover, Events, WindDirDegrees
2011-10-1,84,60,36,36,33,30,76,46,16,30.13,30.05,29.99,10,10,10,14,6,20,0.00,0,,89
2011-10-2,93,66,39,37,32,26,70,41,11,30.06,29.95,29.89,10,10,10,15,6,18,0.00,0,,147
2011-10-3,93,69,45,41,36,33,61,37,12,30.01,29.92,29.86,10,10,10,21,8,26,0.00,0,,211
2011-10-4,86,74,62,40,33,27,40,26,12,29.95,29.87,29.81,10,10,10,38,20,48,0.00,0,,179
2011-10-5,81,70,58,56,46,32,78,52,25,29.81,29.68,29.57,10,10,10,36,22,48,0.00,0,,178
2011-10-6,87,68,48,56,42,28,84,50,15,29.65,29.51,29.37,10,10,9,45,26,56,T,1,,197
2011-10-7,83,61,38,40,32,27,59,38,17,29.82,29.72,29.65,10,10,10,15,8,21,0.07,2,Thunderstorm,210
2011-10-8,58,50,41,51,43,35,93,70,47,30.09,29.84,29.62,10,10,9,28,11,35,0.07,3,Rain,289
2011-10-9,66,53,39,44,36,32,85,58,30,30.12,30.05,29.95,10,10,10,17,8,23,T,1,Rain,276
2011-10-10,73,53,32,42,36,23,92,54,15,30.00,29.90,29.79,10,10,5,13,6,18,0.00,0,,199
2011-10-11,77,59,40,48,43,29,100,59,18,29.84,29.77,29.64,10,6,0,17,7,21,0.00,4,Fog,266
2011-10-12,73,54,35,42,32,25,92,55,17,30.04,29.93,29.81,10,10,10,33,10,41,0.00,0,,316
2011-10-13,79,55,30,32,26,19,78,45,11,30.07,29.94,29.81,10,10,10,15,3,24,0.00,0,,232
2011-10-14,69,51,32,31,29,26,78,51,24,30.08,29.99,29.86,10,10,10,14,5,23,0.00,0,,116
2011-10-15,86,60,34,33,28,20,76,43,9,30.08,29.95,29.80,10,10,10,18,8,23,0.00,0,,216
2011-10-16,67,53,39,37,33,22,73,49,24,30.08,29.96,29.80,10,10,10,17,9,21,0.00,0,,87
2011-10-17,60,47,33,47,36,32,89,66,43,30.26,30.06,29.87,10,10,10,37,14,48,0.01,3,Rain,5
2011-10-18,62,46,30,32,26,19,100,60,20,30.34,30.26,30.22,10,10,10,28,11,37,0.00,2,,299
2011-10-19,62,44,26,24,22,20,75,49,22,30.27,30.12,29.98,10,10,10,13,6,16,0.00,0,,188
2011-10-20,76,50,24,26,24,19,75,45,15,30.06,29.97,29.89,10,10,10,14,5,16,0.00,0,,131
2011-10-21,80,53,26,26,22,16,63,37,11,30.14,30.04,29.95,10,10,10,15,5,17,0.00,0,,213
2011-10-22,74,54,33,34,28,19,61,41,20,30.08,30.03,29.96,10,10,10,16,6,23,0.00,0,,258
2011-10-23,78,56,34,30,26,22,69,41,13,30.13,30.06,30.00,10,10,10,14,6,16,0.00,0,,226
2011-10-24,86,60,33,28,21,13,59,33,6,30.03,29.87,29.71,10,10,9,15,6,18,0.00,0,,226
2011-10-25,73,60,46,36,28,20,61,40,19,30.00,29.83,29.69,10,10,10,21,12,26,0.00,1,,48
2011-10-26,46,39,32,36,34,30,100,83,65,30.27,30.16,30.01,10,7,2,20,10,24,0.05,8,Rain-Snow,26
2011-10-27,48,35,21,29,25,20,96,68,39,30.26,30.21,30.13,10,10,10,10,5,13,0.00,0,,248
2011-10-28,60,40,20,31,21,11,96,55,14,30.36,30.26,30.11,10,10,9,13,7,16,0.00,0,,233
2011-10-29,72,47,21,31,22,13,92,51,10,30.11,29.97,29.82,10,10,10,16,7,20,0.00,0,,249
2011-10-30,65,46,27,30,25,20,85,53,20,30.23,30.15,30.03,10,10,10,15,6,18,0.00,0,,248
2011-10-31,77,50,22,32,23,18,88,51,13,30.12,29.96,29.81,10,10,10,12,6,16,0.00,0,,223